Location: Unspecified
(33.6682°S, 0.0000°E)
Time: 13:14:22
(UTC+00:00)

Tiros 1 despin weight - Pass Details

Date: 19 June 2019
Orbit: 594 x 642 km, 48.2° (Epoch: 17 July)

Event Time Altitude Azimuth Distance (km) Brightness Sun altitude
Rises 16:07:31 0° 228° (SW) 2,972 ? 8.3°
Reaches altitude 10° 16:10:38 10° 207° (SSW) 2,059 ? 7.7°
Maximum altitude 16:13:44 17° 166° (SSE) 1,641 ? 7.2°
Drops below altitude 10° 16:16:50 10° 125° (SE) 2,048 ? 6.7°
Sets 16:19:55 0° 104° (ESE) 2,948 ? 6.1°
